Regional Weather Roundup
Issued by NWS

Home | Current Version | Previous Version | Text Only | Print | Product List | Glossary On
Versions: 1 2 3 4 5 6 7 8 9 10 11 12 13 14 15 16 17 18 19 20 21 22 23 24 25 26 27 28 29 30 31 32 33 34 35 36 37 38 39 40 41 42 43 44 45 46 47 48 49 50
000
ASUS43 KDTX 221910
RWRMI
MICHIGAN HOURLY REGIONAL WEATHER ROUNDUP
NATIONAL WEATHER SERVICE DETROIT/PONTIAC MI
300 PM EDT MON SEP 22 2014

NOTE: "FAIR" INDICATES FEW OR NO CLOUDS BELOW 12,000 FEET WITH NO
SIGNIFICANT WEATHER AND/OR OBSTRUCTION TO VISIBILITY.

MIZ047>049-052>055-059>063-066>070-074>076-081>083-222000-
SOUTHEAST LOWER MICHIGAN

CITY           SKY/WX    TMP DP  RH WIND       PRES   REMARKS
ADRIAN         SUNNY     61  41  47 NW6       30.21F
ALMA           PTSUNNY   62  44  51 NW10G17   30.20F
ANN ARBOR      SUNNY     61  40  45 NW7G18    30.20F
BAD AXE        SUNNY     56  43  60 W12G17    30.18S
CARO           SUNNY     60  42  52 NW10G17   30.18S
DETROIT CITY   SUNNY     61  38  42 W12       30.19F
DETROIT        MOSUNNY   60  42  51 W13G18    30.20F
FLINT          SUNNY     62  43  49 W10G17    30.20F
GROSSE ILE     SUNNY     61  43  51 W10       30.19F
HILLSDALE      SUNNY     61  39  44 NW8       30.21F
HOWELL         SUNNY     59  41  52 NW7       30.20F

CITY           SKY/WX    TMP DP  RH WIND       PRES   REMARKS
JACKSON        SUNNY     61  41  47 VRB7      30.21F
LAMBERTVILLE   SUNNY     63  41  45 W6        30.21F
LANSING        SUNNY     60  42  51 NW9       30.22F
LAPEER         FAIR      57  41  56 NW7G16    30.19F
MASON          SUNNY     59  42  53 NW9       30.22S
MONROE         SUNNY     61  43  51 NW9       30.19F
MT. CLEMENS    MOSUNNY   59  40  48 NW10G17   30.16F
PONTIAC        MOSUNNY   58  41  53 W13       30.18F
PORT HOPE        N/A     57  42  57 W5        30.16F
PORT HURON     SUNNY     57  43  58 NW9       30.18S
TRI CITIES     MOSUNNY   62  43  49 W13       30.19F
TROY           SUNNY     60  37  42 W8        30.20F
SAGINAW HB     SUNNY     61  43  51 W9        30.19S
$$
MIZ043>046-050>051-056>058-064>065-071>073-077>080-222000-
SOUTHWEST LOWER MICHIGAN

CITY           SKY/WX    TMP DP  RH WIND       PRES   REMARKS
BATTLE CREEK   SUNNY     63  43  48 N9        30.24F
BENTON HARBOR  MOSUNNY   57  46  66 W9        30.27F
BIG RAPIDS     MOSUNNY   62  49  61 NW8       30.19F
COLDWATER      SUNNY     62  41  45 N8G17     30.23S
FREMONT        FAIR      62  41  46 NW8       30.22F
HOLLAND        MOSUNNY   60  47  61 W8G18     30.26F
GRAND RAPIDS   MOSUNNY   62  46  55 NW10      30.23F
IONIA          FAIR      62  43  50 W7        30.22S
KALAMAZOO      SUNNY     63  43  48 NW15      30.24F
LUDINGTON      MOSUNNY   57  48  73 SW10      30.22F
MARSHALL       SUNNY     61  41  49 NW6G18    30.22F
MOUNT PLEASANT MOSUNNY   62  44  50 W12       30.19F
MUSKEGON       MOSUNNY   59  45  59 SW10      30.25F
SOUTH HAVEN    MOSUNNY   60  49  65 NW9       30.26F
$$
MIZ016>042-222000-
NORTHERN LOWER MICHIGAN

CITY           SKY/WX    TMP DP  RH WIND       PRES   REMARKS
ALPENA         MOSUNNY   62  43  49 W10G18    30.12F
BEAVER ISLAND  MOSUNNY   60  51  72 W18       30.14S
BELLAIRE       SUNNY     60  46  57 SW7       30.17S
CADILLAC       CLOUDY    60  45  59 W10       30.18S
CHARLEVOIX     SUNNY     60  49  68 W16       30.18S
FRANKFORT      SUNNY     58  48  68 SW13      30.20S
GAYLORD        SUNNY     57  43  59 W12G22    30.15F
GRAYLING       PTSUNNY   62  44  51 W12G20    30.17S
HARBOR SPRINGS PTSUNNY   60  49  68 W9G17     30.14F
HOUGHTON LAKE  CLOUDY    59  44  57 W8        30.17F
MANISTEE       MOSUNNY   57  45  62 W8        30.21F
OSCODA         SUNNY     62  42  47 W8        30.13F
PELLSTON       PTSUNNY   59  48  67 W14G22    30.13F
TRAVERSE CITY  MOSUNNY   62  44  51 W8G18     30.16F
$$
MIZ007>008-015-222000-
EASTERN UPPER MICHIGAN

CITY           SKY/WX    TMP DP  RH WIND       PRES   REMARKS
KINROSS        PTSUNNY   61  46  59 W7G18     30.09S
MACKINAC ISLAN PTSUNNY   57  49  76 W13G23    30.12S
NEWBERRY       CLOUDY    61  47  60 W10G18    30.10S
S. S. MARIE    PTSUNNY   59  44  57 W10       30.09S
MUNISING         N/A     64  47  53 N7        30.10F
$$
MIZ004>006-011>014-085-222000-
CENTRAL UPPER MICHIGAN

CITY           SKY/WX    TMP DP  RH WIND       PRES   REMARKS
MANISTIQUE     PTSUNNY   65  51  60 SW8       30.11F
ESCANABA       PTSUNNY   66  46  48 W12G20    30.13S
MENOMINEE      PTSUNNY   64  48  55 W9        30.15F
SAWYER-GWINN   SUNNY     64  45  48 W12       30.11F
$$
MIZ001>003-009>011-084-222000-
WESTERN UPPER MICHIGAN

CITY           SKY/WX    TMP DP  RH WIND       PRES   REMARKS
IRON MOUNTAIN  MOSUNNY   67  47  48 W13G20    30.13F
HOUGHTON       SUNNY     63  46  54 W18G29    30.09F
COPPER HARBOR    N/A     65  47  52 NW13G22   30.05F
IRONWOOD       MOSUNNY   64  52  63 W9G17     30.13F
$$

ABBREVIATIONS USED IN REMARKS
   TC - TEMPERATURE IN CELSIUS
  WCI - WIND CHILL INDEX
   HX - HEAT INDEX
  VSB - VISIBILITY




USA.gov is the U.S. government's official web portal to all federal, state and local government web resources and services.